STARLINK-11326, 62010

Orbit data source: Space-Track

STARLINK-11326, 62010 is a payload satellite owned by SpaceX/Seattle (US) in LEO that was launched on Mon, 18 Nov 2024 UTC via an FALCON 9 launch vehicle from the Air Force Western Test Range (AFWTR). Payload-class satellites include a variety of spacecraft equipped with specific instruments for various scientific and technological missions. These include communications satellites like Starlink; space stations such as the ISS; scientific satellites like the Hubble; Earth observation satellites from companies like Planet Labs, Umbra, and HawkEye 360; GPS; miniature CubeSats for education and research; and military/defense satellites.

Loading next visibility...
Identifier
62010, 2024-213C
Orbit
LEO
Last TLE update
1 day ago
Origin
Manufacturer
SpaceX/Seattle
Mission
Operational Commercial Communications
Bus & Motor
STARLINK V2M, Unknown motor
Mass
730 kg wet, ~700 kg dry
Launch date (UTC)
2024-11-18 (6 months ago)
Launch vehicle
FALCON 9
Launch site
Air Force Western Test Range (AFWTR)
Object type
Payload
Rocket body
Debris
Shape & HBR
Box + 2 Pan, 29 m
Radar Cross Section
36.964 m², Large (>1 m²)

Expand to show TLE details & history

TLE from 1 day ago
0 STARLINK-11326
1 62010U 24213C   25128.32661815 -.00000459  00000-0  10725-5 0  9990
2 62010  53.1585 106.6507 0001536  89.2126 270.9068 15.69717725 26950
Epoch: 2025-05-08T07:50Z
Definitive object data (Epoch: 2025-05-08T07:50:19.808Z)
Latitude
Longitude
122.66946°
Altitude
360.603 km
Speed
7.694 km/s
True Right ascension
07h 06m 36s
True Declination
0° 00' 00"
Sunlit
Object was in daylight at TLE epoch
Visualization TLE readout
Latitude
2.30825°
Longitude
-63.91524°
Altitude
360.251 km
Speed
7.695 km/s
Apparent Right ascension
21h 46m 52s
Apparent Declination
-38° 30' 52"
Sunlit
Object is in full shadow
Visualization observer readout
Local Sidereal Time
15:39:38
Azimuth
120.559° SE
Elevation
-24.741°
Doppler factor
1
Orbital elements
Apogee altitude
361.001 km
Perigee altitude
358.931 km
Semi-major axis
6,738.103 km
Eccentricity
0.0001536
Inclination
53.1585°
RAAN
106.6507°
Arg. of periapsis
89.2126°
True anomaly
270.8892°
Mean anomaly
270.9068°
Eccentric anomaly
270.898°
Mean motion
3.92407 °/min
BSTAR
0.0000010725
Orbital period
91.74 mins
Loading maneuver chart data...
Loading SW <> Apogee altitude chart data...
Loading historical data...
Loading historical data...
Loading historical data...
Loading historical data...
Loading historical data...
Loading historical data...
Loading historical data...

STARLINK-11326 Visibility forecast

Observer location: undefined°, undefined°

Span
Click to sort rows by Start time (UTC) header in descending order
Start Az.
Max El. time (UTC)
Max El. Az.
Max El.
End time (UTC)
End Az.
4 mins2025-05-10 01:18:37.695Z258.247° W2025-05-10 01:20:37.695Z349.849° N34.313°2025-05-10 01:22:37.695Z36.634° NE
|